{"data":{"norad_id":68567,"epoch":"2026-09-20T01:17:50.504064Z","epoch_age_seconds":83242,"freshness":"FRESH","line1":"1 68567U 26070AB  26263.05405676  .00011242  00000+0  34329-3 0  9992","line2":"2 68567  53.1567 175.4386 0000491  88.5609 271.5450 15.34404038 26379","mean_motion":15.34404038,"eccentricity":4.91e-5,"inclination_deg":53.1567,"raan_deg":175.4386,"arg_perigee_deg":88.5609,"mean_anomaly_deg":271.545,"bstar":0.00034329,"rev_number":2637,"period_min":93.847511107762,"perigee_km":462.35535377995,"apogee_km":463.02712311296,"semimajor_km":6840.8282384465,"source":"CELESTRAK","updated_at":"2026-09-20T09:00:43.939345Z"}}